Flag for Russia Weather past 2 weeks in Kemerovo, Russia

70 °F


Feels Like: 70 °F
Forecast: 46 / 53 °F
Wind: 10 mph from Southeast

Location: Kemerovo

Current Time: Oct 9, 2015 at 4:39:45 PM

Latest Report: Oct 9, 2015 at 4:00 PM

Visibility: 10 mi

Pressure: 29.92 "Hg

Humidity: 29%

Dew point: 36 °F

Location of KemerovoLocation

Historic Weather in Kemerovo — Graph


Kemerovo temperature yesterday

Maximum temperature yesterday: 59 °F (at 3:00 PM)
Minimum temperature yesterday: 34 °F (at 7:30 AM)
Average temperature yesterday: 45 °F

Past Weeks' High & Low Weather Summary

High70 °F (Oct 9, 3:30 PM)100% (Sep 25, 1:00 AM)30.48 "Hg (Sep 25, 1:00 AM)
Low28 °F (Sep 28, 6:00 AM)29% (Oct 9, 3:30 PM)29.12 "Hg (Oct 4, 6:00 PM)
Average42 °F77%30.01 "Hg
* Reported Sep 24 3:00 PM — Oct 9 3:30 PM, Kemerovo, Weather by CustomWeather, © 2015

Note: Actual official high and low records may vary slightly from our data, if they occured in-between our weather recording intervals... More about our weather records


Kemerovo weather history for previous 24 hours

Time TempWeatherWind HumidityBarometerVisibility
3:30 PM
Fri, Oct 9
70 °FSunny.10 mph29%29.92 "Hg10 mi
3:00 PM68 °FSunny.13 mph30%29.95 "Hg10 mi
2:30 PM68 °FSunny.10 mph33%29.95 "Hg10 mi
2:00 PM66 °FSunny.13 mph32%29.95 "Hg10 mi
1:30 PM63 °FSunny.10 mph39%29.98 "Hg10 mi
1:00 PM61 °FSunny.10 mph42%29.98 "Hg10 mi
12:30 PM59 °FSunny.10 mph42%29.98 "Hg10 mi
12:00 PM55 °FSunny.10 mph47%29.98 "Hg10 mi
11:30 AM54 °FSunny.10 mph47%29.98 "Hg10 mi
11:00 AM52 °FSunny.10 mph50%29.98 "Hg10 mi
10:30 AM48 °FSunny.10 mph50%30.01 "Hg10 mi
10:00 AM46 °FSunny.8 mph53%30.01 "Hg10 mi
9:30 AM45 °FSunny.8 mph57%30.01 "Hg10 mi
9:00 AM43 °FSunny.6 mph61%30.01 "Hg10 mi
8:30 AM39 °FClear.6 mph65%30.01 "Hg10 mi
8:00 AM37 °FClear.6 mph70%30.01 "Hg10 mi
7:30 AM37 °FClear.6 mph65%30.01 "Hg10 mi
7:00 AM39 °FClear.6 mph65%30.01 "Hg10 mi
6:30 AM39 °FClear.6 mph65%30.01 "Hg10 mi
6:00 AM39 °FClear.6 mph65%30.01 "Hg10 mi
5:30 AM39 °FClear.6 mph65%30.01 "Hg10 mi
4:00 AM41 °FClear.6 mph57%30.01 "Hg10 mi
3:30 AM43 °FClear.6 mph57%30.01 "Hg10 mi
3:00 AM43 °FClear.6 mph57%30.01 "Hg10 mi
2:30 AM45 °FClear.6 mph53%30.04 "Hg10 mi
2:00 AM45 °FClear.6 mph53%30.04 "Hg10 mi
1:30 AM45 °FClear.6 mph49%30.04 "Hg10 mi
1:00 AM45 °FClear.6 mph49%30.04 "Hg10 mi
12:30 AM45 °FClear.6 mph49%30.04 "Hg10 mi
12:00 AM46 °FClear.6 mph46%30.04 "Hg10 mi
11:30 PM
Thu, Oct 8
46 °FClear.6 mph46%30.04 "Hg10 mi
11:00 PM46 °FClear.6 mph46%30.04 "Hg10 mi
10:30 PM48 °FClear.6 mph43%30.04 "Hg10 mi
10:00 PM48 °FClear.6 mph43%30.04 "Hg10 mi
9:30 PM50 °FClear.6 mph40%30.04 "Hg10 mi
9:00 PM50 °FClear.6 mph37%30.04 "Hg10 mi
8:30 PM52 °FClear.6 mph35%30.04 "Hg10 mi
8:00 PM52 °FClear.6 mph38%30.04 "Hg10 mi
7:30 PM52 °FSunny.6 mph38%30.07 "Hg10 mi
7:00 PM52 °FSunny.8 mph38%30.04 "Hg10 mi
6:30 PM54 °FSunny.6 mph38%30.07 "Hg10 mi
6:00 PM55 °FSunny.6 mph38%30.07 "Hg10 mi
5:30 PM59 °FSunny.6 mph34%30.07 "Hg10 mi
5:00 PM59 °FSunny.6 mph36%30.07 "Hg10 mi
4:30 PM59 °FSunny.8 mph36%30.07 "Hg10 mi
4:00 PM59 °FSunny.8 mph36%30.07 "Hg10 mi
Weather by CustomWeather, © 2015

See weather overviewHow to use our weather pages